Flag for Spain Weather past 2 weeks in Arrecife, Canary Islands, Spain

Now
75 °F

Passing clouds.


Feels Like: 77 °F
Forecast: 73 / 82 °F
Wind: 14 mph from Northeast

Location: Lanzarote / Aeropuerto

Current Time: Sep 1, 2015 at 10:07:47 PM

Latest Report: Sep 1, 2015 at 9:30 PM


Visibility: N/A

Pressure: 30.07 "Hg

Humidity: 74%

Dew point: 66 °F

Location of ArrecifeLocation

Historic Weather in Arrecife — Graph

°F

Arrecife temperature yesterday

Maximum temperature yesterday: 86 °F (at 3:30 PM)
Minimum temperature yesterday: 73 °F (at 12:00 AM)
Average temperature yesterday: 78 °F

Past Weeks' High & Low Weather Summary

 TemperatureHumidityPressure
High86 °F (Aug 21, 3:00 PM)89% (Aug 31, 6:30 AM)30.15 "Hg (Aug 31, 6:30 AM)
Low70 °F (Aug 30, 7:00 AM)43% (Aug 30, 4:30 PM)29.89 "Hg (Aug 29, 5:30 PM)
Average78 °F68%30.04 "Hg
* Reported Aug 17 9:00 PM — Sep 1 9:00 PM, Arrecife, Weather by CustomWeather, © 2015

Note: Actual official high and low records may vary slightly from our data, if they occured in-between our weather recording intervals... More about our weather records

Advertising

Arrecife weather history for previous 24 hours

 ConditionsComfort  
Time TempWeatherWind HumidityBarometerVisibility
9:00 PM
Tue, Sep 1
75 °FPassing clouds.16 mph74%30.07 "HgN/A
8:30 PM75 °FPassing clouds.22 mph74%30.07 "HgN/A
8:00 PM77 °FPassing clouds.21 mph69%30.07 "HgN/A
7:30 PM79 °FPassing clouds.22 mph70%30.07 "HgN/A
7:00 PM79 °FPassing clouds.21 mph70%30.07 "HgN/A
6:30 PM81 °FPassing clouds.20 mph62%30.07 "HgN/A
6:00 PM82 °FPassing clouds.23 mph58%30.07 "HgN/A
5:30 PM82 °FPassing clouds.21 mph62%30.07 "HgN/A
5:00 PM82 °FPassing clouds.21 mph58%30.07 "HgN/A
4:30 PM84 °FPassing clouds.21 mph55%30.07 "HgN/A
4:00 PM86 °FPassing clouds.22 mph55%30.07 "HgN/A
3:30 PM86 °FPassing clouds.22 mph52%30.07 "HgN/A
3:00 PM86 °FPassing clouds.21 mph52%30.07 "HgN/A
2:30 PM86 °FPassing clouds.18 mph52%30.07 "HgN/A
2:00 PM86 °FPassing clouds.17 mph55%30.09 "HgN/A
1:30 PM84 °FPassing clouds.14 mph62%30.09 "HgN/A
1:00 PM79 °FPassing clouds.21 mph79%30.09 "HgN/A
12:30 PM81 °FPassing clouds.17 mph70%30.09 "HgN/A
12:00 PM81 °FPassing clouds.18 mph74%30.09 "HgN/A
11:30 AM79 °FPassing clouds.18 mph74%30.12 "HgN/A
11:00 AM81 °FPassing clouds.20 mph66%30.09 "HgN/A
10:30 AM81 °FPassing clouds.17 mph66%30.09 "HgN/A
10:00 AM79 °FPassing clouds.20 mph74%30.09 "HgN/A
9:30 AM77 °FPassing clouds.20 mph79%30.09 "HgN/A
9:00 AM75 °FPassing clouds.20 mph83%30.07 "HgN/A
8:30 AM75 °FPassing clouds.17 mph83%30.07 "HgN/A
8:00 AM73 °FPassing clouds.14 mph89%30.07 "HgN/A
7:30 AM73 °FPassing clouds.17 mph89%30.04 "HgN/A
7:00 AM73 °FPassing clouds.18 mph89%30.04 "HgN/A
6:30 AM73 °FPassing clouds.16 mph89%30.04 "HgN/A
6:00 AM73 °FPassing clouds.18 mph89%30.04 "HgN/A
1:00 AM75 °FPassing clouds.13 mph83%30.07 "HgN/A
12:30 AM75 °FPassing clouds.10 mph89%30.09 "HgN/A
12:00 AM75 °FPassing clouds.13 mph83%30.09 "HgN/A
10:30 PM
Mon, Aug 31
77 °FPassing clouds.13 mph79%30.09 "HgN/A
10:00 PM77 °FPassing clouds.13 mph79%30.07 "HgN/A
Weather by CustomWeather, © 2015

See weather overviewHow to use our weather pages